DW6513 Weather Reports


Display with metric or nautical units.
time (UTC)temp
F
wind
direction
speed
MPH
gust
MPH
rain 1hr
in
rain 24hr
in
rain mn
in
humidity
%
barometer
mb
20260903223302 101 145 1.0 5.0 0.00 0.00 0.00 31 1012.4
20260903222801 101 145 2.0 5.0 0.00 0.00 0.00 29 1012.5
20260903222305 101 212 1.0 5.0 0.00 0.00 0.00 30 1012.6
20260903221801 103 141 1.0 5.0 0.00 0.00 0.00 28 1012.6
20260903221302 102 212 2.0 5.0 0.00 0.00 0.00 28 1012.6
20260903220802 102 114 2.0 8.0 0.00 0.00 0.00 28 1012.5
20260903215802 103 130 2.0 0.0 0.00 0.00 0.00 28 1012.5
20260903213802 103 126 2.0 10.0 0.00 0.00 0.00 27 1012.9
20260903213301 102 78 1.0 10.0 0.00 0.00 0.00 27 1012.9
20260903212801 102 145 1.0 3.0 0.00 0.00 0.00 29 1013.0
20260903211301 103 168 1.0 0.0 0.00 0.00 0.00 29 1013.1
20260903205802 102 134 2.0 5.0 0.00 0.00 0.00 30 1012.9
20260903205301 101 100 2.0 2.0 0.00 0.00 0.00 31 1012.9
20260903204802 100 241 2.0 7.0 0.00 0.00 0.00 31 1013.0
20260903204301 103 145 2.0 7.0 0.00 0.00 0.00 29 1013.0
20260903203802 103 101 2.0 8.0 0.00 0.00 0.00 31 1013.0
20260903203302 102 145 2.0 8.0 0.00 0.00 0.00 31 1013.0
20260903202802 101 131 1.0 5.0 0.00 0.00 0.00 32 1013.1
20260903202301 101 302 1.0 5.0 0.00 0.00 0.00 31 1013.2
20260903201802 102 125 0.0 0.0 0.00 0.00 0.00 34 1013.2
20260903201301 100 78 3.0 0.0 0.00 0.00 0.00 34 1013.2
20260903200802 98 287 5.0 13.0 0.00 0.00 0.00 34 1013.4
20260903200301 98 122 3.0 13.0 0.00 0.00 0.00 33 1013.5
20260903195802 99 108 3.0 6.0 0.00 0.00 0.00 33 1013.5
20260903195306 99 190 5.0 5.0 0.00 0.00 0.00 34 1013.5
20260903194801 99 128 5.0 7.0 0.00 0.00 0.00 34 1014.1
20260903193801 101 303 1.0 8.0 0.00 0.00 0.00 34 1014.5
20260903193302 100 145 1.0 5.0 0.00 0.00 0.00 35 1014.5
20260903192802 98 149 1.0 2.0 0.00 0.00 0.00 37 1014.2
20260903192301 99 212 2.0 2.0 0.00 0.00 0.00 36 1014.1
20260903191802 98 75 2.0 5.0 0.00 0.00 0.00 36 1014.1
20260903191302 97 168 2.0 5.0 0.00 0.00 0.00 37 1014.1
20260903190802 97 167 3.0 6.0 0.00 0.00 0.00 38 1014.3
20260903190301 95 122 5.0 6.0 0.00 0.00 0.00 37 1014.4
20260903185802 95 195 5.0 6.0 0.00 0.00 0.00 36 1014.4
20260903185301 96 145 4.0 14.0 0.00 0.00 0.00 36 1014.4
20260903184801 96 36 3.0 14.0 0.00 0.00 0.00 39 1014.4
20260903184302 96 325 5.0 6.0 0.00 0.00 0.00 40 1014.4
20260903183802 95 104 5.0 14.0 0.00 0.00 0.00 40 1014.4
20260903182803 94 208 5.0 9.0 0.00 0.00 0.00 43 1014.7
20260903182301 91 122 5.0 9.0 0.00 0.00 0.00 42 1014.8
20260903181802 93 125 5.0 5.0 0.00 0.00 0.00 43 1014.8
20260903181302 92 235 4.0 6.0 0.00 0.00 0.00 44 1014.8
20260903180302 91 32 4.0 0.0 0.00 0.00 0.00 46 1014.9
20260903175802 91 325 5.0 14.0 0.00 0.00 0.00 46 1014.9
20260903175305 91 10 5.0 14.0 0.00 0.00 0.00 46 1014.9
20260903174801 90 175 6.0 14.0 0.00 0.00 0.00 46 1015.2
20260903173802 90 149 5.0 10.0 0.00 0.00 0.00 47 1015.3
20260903172801 90 322 6.0 13.0 0.00 0.00 0.00 46 1015.4
20260903171802 90 49 6.0 9.0 0.00 0.00 0.00 47 1015.4
20260903171302 89 302 5.0 7.0 0.00 0.00 0.00 47 1015.4
20260903170802 90 108 5.0 8.0 0.00 0.00 0.00 47 1015.1
20260903170302 89 100 6.0 8.0 0.00 0.00 0.00 48 1014.9
20260903165305 89 100 6.0 8.0 0.00 0.00 0.00 49 1014.9
20260903164802 89 69 7.0 14.0 0.00 0.00 0.00 49 1015.4
20260903164301 89 78 5.0 10.0 0.00 0.00 0.00 49 1015.7
20260903163802 89 117 5.0 10.0 0.00 0.00 0.00 50 1015.7
20260903163302 88 168 5.0 14.0 0.00 0.00 0.00 50 1015.7
20260903162801 88 139 6.0 9.0 0.00 0.00 0.00 51 1015.6
20260903162306 88 145 6.0 10.0 0.00 0.00 0.00 51 1015.5
20260903161802 88 45 5.0 12.0 0.00 0.00 0.00 51 1015.5
20260903161302 87 302 5.0 10.0 0.00 0.00 0.00 51 1015.5
20260903160802 87 73 6.0 13.0 0.00 0.00 0.00 52 1015.6
20260903160301 87 122 6.0 20.0 0.00 0.00 0.00 51 1015.7
20260903155802 86 114 7.0 12.0 0.00 0.00 0.00 53 1015.7
20260903154802 86 100 6.0 13.0 0.00 0.00 0.00 53 1015.7
20260903154302 86 100 5.0 13.0 0.00 0.00 0.00 54 1015.7
20260903153802 86 100 5.0 12.0 0.00 0.00 0.00 57 1015.7
20260903153302 86 100 5.0 7.0 0.00 0.00 0.00 57 1015.7
20260903152802 85 100 3.0 8.0 0.00 0.00 0.00 58 1015.7
20260903152301 85 145 3.0 13.0 0.00 0.00 0.00 59 1015.7
20260903151802 85 55 3.0 13.0 0.00 0.00 0.00 59 1015.7
20260903151302 84 302 5.0 10.0 0.00 0.00 0.00 59 1015.7
20260903150801 84 46 5.0 10.0 0.00 0.00 0.00 60 1015.7
20260903150301 83 100 5.0 8.0 0.00 0.00 0.00 60 1015.7
20260903145802 83 125 3.0 12.0 0.00 0.00 0.00 60 1015.7
20260903144802 83 220 3.0 6.0 0.00 0.00 0.00 60 1015.7
20260903144302 82 145 3.0 6.0 0.00 0.00 0.00 61 1015.7
20260903143802 82 172 2.0 6.0 0.00 0.00 0.00 61 1015.7
20260903143302 82 145 2.0 5.0 0.00 0.00 0.00 62 1015.7
20260903142305 82 145 1.0 5.0 0.00 0.00 0.00 63 1015.6
20260903141802 81 32 1.0 3.0 0.00 0.00 0.00 65 1015.6
20260903141302 81 235 1.0 2.0 0.00 0.00 0.00 66 1015.6
20260903140302 80 122 1.0 3.0 0.00 0.00 0.00 67 1015.6
20260903135802 80 168 2.0 3.0 0.00 0.00 0.00 67 1015.6
20260903135302 80 235 2.0 3.0 0.00 0.00 0.00 67 1015.6
20260903134802 79 130 2.0 5.0 0.00 0.00 0.00 68 1015.6
20260903134302 79 100 2.0 3.0 0.00 0.00 0.00 69 1015.6
20260903133801 79 143 1.0 3.0 0.00 0.00 0.00 70 1015.6
20260903133302 78 145 1.0 3.0 0.00 0.00 0.00 70 1015.6
20260903132801 78 125 0.0 0.0 0.00 0.00 0.00 70 1015.7
20260903132306 78 212 1.0 2.0 0.00 0.00 0.00 71 1015.7
20260903131802 77 123 1.0 2.0 0.00 0.00 0.00 71 1015.7
20260903131302 77 145 1.0 3.0 0.00 0.00 0.00 71 1015.7
20260903130802 77 325 1.0 0.0 0.00 0.00 0.00 71 1015.6
20260903130302 76 100 0.0 2.0 0.00 0.00 0.00 72 1015.6
20260903125305 76 78 1.0 0.0 0.00 0.00 0.00 73 1015.6
20260903124802 76 90 1.0 3.0 0.00 0.00 0.00 72 1015.5
20260903124302 76 145 1.0 3.0 0.00 0.00 0.00 72 1015.4
20260903123302 75 168 0.0 0.0 0.00 0.00 0.00 73 1015.4
20260903122802 75 25 0.0 0.0 0.00 0.00 0.00 74 1015.6
20260903122305 75 145 0.0 0.0 0.00 0.00 0.00 74 1015.6
20260903121802 75 78 0.0 0.0 0.00 0.00 0.00 74 1015.6
20260903120803 75 159 0.0 0.0 0.00 0.00 0.00 74 1015.2
20260903120302 75 168 0.0 0.0 0.00 0.00 0.00 74 1015.2
20260903115802 74 123 0.0 0.0 0.00 0.00 0.00 74 1015.2
20260903115305 74 32 0.0 0.0 0.00 0.00 0.00 73 1015.2
20260903113803 74 119 0.0 2.0 0.00 0.00 0.00 72 1015.2
20260903112802 74 201 0.0 2.0 0.00 0.00 0.00 72 1015.2
20260903112305 75 100 0.0 0.0 0.00 0.00 0.00 72 1015.2
20260903111802 75 100 1.0 0.0 0.00 0.00 0.00 72 1015.2
20260903111302 75 100 1.0 0.0 0.00 0.00 0.00 72 1015.5
20260903110802 75 140 0.0 2.0 0.00 0.00 0.00 71 1015.4
20260903110302 75 100 0.0 0.0 0.00 0.00 0.00 71 1015.4
20260903105802 75 125 0.0 0.0 0.00 0.00 0.00 71 1015.4
20260903105305 75 122 0.0 0.0 0.00 0.00 0.00 71 1015.4
20260903062305 79 212 0.0 0.0 0.00 0.00 0.00 62 1015.2
20260903061802 79 115 1.0 3.0 0.00 0.00 0.00 62 1015.2
20260903061302 80 145 1.0 0.0 0.00 0.00 0.00 62 1015.2
20260903055306 80 212 1.0 0.0 0.00 0.00 0.00 61 1015.1
20260903054802 80 126 1.0 3.0 0.00 0.00 0.00 61 1015.2
20260903054302 80 145 1.0 3.0 0.00 0.00 0.00 61 1015.2
20260903053802 80 118 1.0 2.0 0.00 0.00 0.00 60 1015.2
20260903053302 80 104 1.0 3.0 0.00 0.00 0.00 60 1015.2
20260903052802 80 119 1.0 2.0 0.00 0.00 0.00 60 1014.9
20260903052302 80 122 1.0 2.0 0.00 0.00 0.00 60 1014.9
20260903051801 81 99 2.0 3.0 0.00 0.00 0.00 60 1014.9
20260903051302 81 109 2.0 5.0 0.00 0.00 0.00 59 1014.9
20260903050818 81 121 1.0 5.0 0.00 0.00 0.00 59 1015.2
20260903050302 81 100 1.0 3.0 0.00 0.00 0.00 59 1015.2
20260903045802 81 148 1.0 2.0 0.00 0.00 0.00 59 1015.2
20260903045306 81 100 2.0 3.0 0.00 0.00 0.00 59 1015.2
20260903044802 82 123 1.0 3.0 0.00 0.00 0.00 59 1015.0
20260903044302 82 140 1.0 5.0 0.00 0.00 0.00 59 1015.0
20260903043802 82 102 1.0 3.0 0.00 0.00 0.00 58 1015.0
20260903043302 82 107 0.0 2.0 0.00 0.00 0.00 58 1015.0
20260903042802 82 278 0.0 2.0 0.00 0.00 0.00 58 1015.0
20260903042305 82 148 1.0 2.0 0.00 0.00 0.00 58 1015.0
20260903041802 82 147 1.0 2.0 0.00 0.00 0.00 57 1015.0
20260903041302 82 251 1.0 5.0 0.00 0.00 0.00 58 1015.0
20260903040804 82 100 1.0 5.0 0.00 0.00 0.00 57 1014.9
20260903035802 83 102 1.0 5.0 0.00 0.00 0.00 57 1015.1
20260903035306 83 145 1.0 3.0 0.00 0.00 0.00 57 1015.1
20260903034802 83 148 1.0 5.0 0.00 0.00 0.00 57 1015.2
20260903034302 83 115 0.0 0.0 0.00 0.00 0.00 57 1015.2
20260903033802 83 233 0.0 0.0 0.00 0.00 0.00 57 1015.2
20260903033302 83 150 0.0 0.0 0.00 0.00 0.00 57 1015.2
20260903032803 83 146 1.0 5.0 0.00 0.00 0.00 57 1015.1
20260903032305 83 159 1.0 3.0 0.00 0.00 0.00 57 1015.1
20260903031802 83 100 0.0 3.0 0.00 0.00 0.00 57 1015.1
20260903031302 83 145 1.0 2.0 0.00 0.00 0.00 57 1015.1
20260903030802 83 145 1.0 5.0 0.00 0.00 0.00 57 1015.1
20260903030302 83 106 1.0 5.0 0.00 0.00 0.00 57 1015.1
20260903025305 84 109 1.0 3.0 0.00 0.00 0.00 56 1015.1
20260903024302 84 128 0.0 0.0 0.00 0.00 0.00 56 1014.8
20260903023803 84 13 0.0 2.0 0.00 0.00 0.00 55 1014.8
20260903023302 84 58 0.0 2.0 0.00 0.00 0.00 55 1014.8
20260903022802 84 214 1.0 3.0 0.00 0.00 0.00 55 1014.7
20260903022305 85 224 1.0 5.0 0.00 0.00 0.00 55 1014.7
20260903021802 85 164 0.0 5.0 0.00 0.00 0.00 55 1014.7
20260903021302 85 337 1.0 2.0 0.00 0.00 0.00 55 1014.7
20260903020803 85 261 1.0 6.0 0.00 0.00 0.00 54 1014.8
20260903015802 85 119 1.0 3.0 0.00 0.00 0.00 54 1014.8
20260903014802 85 228 1.0 5.0 0.00 0.00 0.00 54 1014.6
20260903014302 86 311 1.0 5.0 0.00 0.00 0.00 53 1014.5
20260903013802 86 288 1.0 2.0 0.00 0.00 0.00 52 1014.5
20260903012802 86 247 1.0 3.0 0.00 0.00 0.00 50 1014.1
20260903012306 86 85 1.0 5.0 0.00 0.00 0.00 50 1014.0
20260903011803 87 281 1.0 2.0 0.00 0.00 0.00 49 1014.0
20260903010802 87 189 1.0 5.0 0.00 0.00 0.00 48 1014.2
20260903010303 87 348 1.0 2.0 0.00 0.00 0.00 47 1014.2
20260903005803 88 214 1.0 3.0 0.00 0.00 0.00 47 1014.2
20260903005306 88 86 1.0 7.0 0.00 0.00 0.00 47 1014.2
20260903004302 89 145 1.0 5.0 0.00 0.00 0.00 44 1014.1
20260903003802 89 277 1.0 3.0 0.00 0.00 0.00 43 1014.1
20260903003303 89 101 0.0 5.0 0.00 0.00 0.00 42 1014.1
20260903002802 90 170 1.0 5.0 0.00 0.00 0.00 41 1014.2
20260903002306 90 235 1.0 3.0 0.00 0.00 0.00 40 1014.2
20260903001803 91 103 1.0 3.0 0.00 0.00 0.00 38 1014.2
20260903001303 91 137 1.0 3.0 0.00 0.00 0.00 37 1014.2
20260903000303 92 163 2.0 2.0 0.00 0.00 0.00 36 1013.7
20260902235802 92 80 2.0 5.0 0.00 0.00 0.00 36 1013.7
20260902235305 92 88 1.0 3.0 0.00 0.00 0.00 35 1013.7
20260902233802 93 256 1.0 6.0 0.00 0.00 0.00 34 1013.9
20260902232802 94 350 2.0 5.0 0.00 0.00 0.00 32 1014.2
20260902232306 94 137 2.0 8.0 0.00 0.00 0.00 32 1014.2
20260902231302 96 100 2.0 6.0 0.00 0.00 0.00 29 1014.2
20260902230803 98 171 2.0 3.0 0.00 0.00 0.00 26 1014.1
20260902230302 100 129 1.0 5.0 0.00 0.00 0.00 25 1014.1
20260902225802 101 97 0.0 2.0 0.00 0.00 0.00 25 1014.1
20260902225306 102 249 1.0 3.0 0.00 0.00 0.00 24 1014.1
20260902224802 102 146 1.0 3.0 0.00 0.00 0.00 25 1013.9
20260902223803 102 144 2.0 5.0 0.00 0.00 0.00 24 1013.9